WX8ASH-13 Weather Reports


time (UTC)temp
C
wind
direction
speed
KPH
gust
KPH
rain 1hr
cm
rain 24hr
cm
rain mn
cm
humidity
%
barometer
mb
20260508135514 12 305 9.7 19.3 0.00 0.05 0.05 71 1020.3
20260508135014 12 287 0.0 19.3 0.03 0.05 0.05 72 1020.3
20260508134517 12 316 3.2 19.3 0.03 0.05 0.05 71 1020.3
20260508134013 12 318 0.0 19.3 0.03 0.05 0.05 72 1020.3
20260508133524 12 314 4.8 19.3 0.03 0.05 0.05 72 1020.3
20260508133013 12 260 4.8 17.7 0.03 0.05 0.05 73 1020.3
20260508132513 11 304 0.0 19.3 0.03 0.05 0.05 72 1020.3
20260508132015 11 274 0.0 19.3 0.03 0.05 0.05 73 1020.4
20260508131512 11 321 0.0 22.5 0.03 0.05 0.05 72 1020.3
20260508131031 11 276 0.0 22.5 0.03 0.05 0.05 71 1020.4
20260508130512 11 288 3.2 22.5 0.03 0.05 0.05 72 1020.4
20260508130012 11 321 8.0 20.9 0.03 0.05 0.05 71 1020.4
20260508125514 11 333 1.6 17.7 0.03 0.05 0.05 72 1020.3
20260508125012 11 319 1.6 17.7 0.00 0.03 0.03 71 1020.3
20260508124516 11 318 16.1 17.7 0.00 0.03 0.03 72 1020.3
20260508124011 11 312 17.7 17.7 0.00 0.03 0.03 72 1020.3
20260508123514 11 325 4.8 20.9 0.00 0.03 0.03 74 1020.3
20260508123011 11 309 4.8 25.7 0.00 0.03 0.03 75 1020.3
20260508122515 11 309 0.0 25.7 0.00 0.03 0.03 75 1020.3
20260508122011 10 330 3.2 25.7 0.00 0.03 0.03 76 1020.3
20260508121535 10 307 6.4 20.9 0.00 0.03 0.03 78 1020.3
20260508121010 10 328 0.0 20.9 0.00 0.03 0.03 79 1020.0
20260508120514 10 269 3.2 20.9 0.00 0.03 0.03 80 1019.9
20260508120010 9 325 8.0 20.9 0.00 0.03 0.03 81 1019.9
20260508115511 8 323 9.7 16.1 0.00 0.03 0.03 83 1019.9
20260508115011 8 311 0.0 14.5 0.00 0.03 0.03 85 1019.8
20260508114510 8 225 0.0 1.6 0.00 0.03 0.03 87 1019.8
20260508114013 8 225 0.0 1.6 0.00 0.03 0.03 88 1019.8
20260508113509 7 225 0.0 1.6 0.00 0.03 0.03 89 1019.7
20260508113013 7 208 0.0 0.0 0.00 0.03 0.03 90 1019.8
20260508112509 7 208 0.0 3.2 0.00 0.03 0.03 91 1019.7
20260508112011 7 208 0.0 3.2 0.00 0.03 0.03 92 1019.8
20260508111509 6 208 0.0 3.2 0.00 0.03 0.03 92 1019.8
20260508111012 6 205 0.0 0.0 0.00 0.03 0.03 93 1019.7
20260508110509 6 205 0.0 0.0 0.00 0.03 0.03 93 1019.7
20260508110010 6 205 0.0 0.0 0.00 0.03 0.03 93 1019.6
20260508105508 6 205 0.0 1.6 0.00 0.03 0.03 93 1019.6
20260508105009 7 205 0.0 1.6 0.00 0.03 0.03 93 1019.6
20260508104508 7 205 0.0 1.6 0.03 0.03 0.03 93 1019.6
20260508104007 7 228 0.0 0.0 0.03 0.03 0.03 93 1019.6
20260508103511 7 228 0.0 0.0 0.03 0.03 0.03 93 1019.6
20260508103007 7 228 0.0 0.0 0.03 0.03 0.03 92 1019.6
20260508102526 7 228 0.0 0.0 0.03 0.03 0.03 92 1019.7
20260508102007 7 228 0.0 0.0 0.03 0.03 0.03 93 1019.7
20260508101510 7 228 0.0 3.2 0.03 0.03 0.03 91 1019.6
20260508101007 7 228 0.0 4.8 0.03 0.03 0.03 91 1019.5
20260508100507 7 228 0.0 9.7 0.03 0.03 0.03 91 1019.5
20260508100008 7 200 0.0 9.7 0.03 0.03 0.03 91 1019.5
20260508095507 7 205 1.6 11.3 0.03 0.03 0.03 90 1019.5
20260508095024 7 229 3.2 11.3 0.03 0.03 0.03 89 1019.8
20260508094506 7 322 4.8 11.3 0.00 0.00 0.00 89 1020.5
20260508094009 7 322 0.0 0.0 0.00 0.00 0.00 88 1019.6
20260508093505 7 322 0.0 0.0 0.00 0.00 0.00 88 1019.6
20260508093010 7 322 0.0 0.0 0.00 0.00 0.00 88 1019.6
20260508092506 7 322 0.0 0.0 0.00 0.00 0.00 88 1019.6
20260508092022 7 322 0.0 0.0 0.00 0.00 0.00 87 1019.6
20260508091520 7 322 0.0 0.0 0.00 0.00 0.00 87 1019.6
20260508091014 8 322 0.0 0.0 0.00 0.00 0.00 87 1019.6
20260508090505 8 322 0.0 0.0 0.00 0.00 0.00 87 1019.6
20260508090035 8 322 0.0 3.2 0.00 0.00 0.00 87 1019.6
20260508085504 8 322 0.0 3.2 0.00 0.00 0.00 87 1019.6
20260508085006 8 322 0.0 3.2 0.00 0.00 0.00 87 1019.6
20260508084505 8 322 0.0 0.0 0.00 0.00 0.00 86 1019.6
20260508084004 8 322 0.0 3.2 0.00 0.00 0.00 86 1019.8
20260508083506 8 322 0.0 4.8 0.00 0.00 0.00 85 1019.8
20260508083004 8 322 0.0 4.8 0.00 0.00 0.00 84 1020.3
20260508082519 8 295 1.6 4.8 0.00 0.00 0.00 83 1020.3
20260508082006 8 304 0.0 6.4 0.00 0.00 0.00 84 1019.9
20260508081504 8 304 0.0 12.9 0.00 0.00 0.00 84 1019.9
20260508081003 8 304 0.0 12.9 0.00 0.00 0.00 84 1020.3
20260508080507 8 305 1.6 16.1 0.00 0.00 0.00 84 1020.3
20260508080003 8 284 0.0 16.1 0.00 0.00 0.00 85 1020.4
20260508075534 8 329 6.4 16.1 0.00 0.00 0.00 83 1020.5
20260508075002 8 333 8.0 14.5 0.00 0.00 0.00 83 1020.4
20260508074506 8 269 0.0 14.5 0.00 0.00 0.00 83 1020.0
20260508074002 8 287 3.2 14.5 0.00 0.00 0.00 84 1020.0
20260508073527 8 269 0.0 4.8 0.00 0.00 0.00 84 1020.0
20260508073002 8 269 0.0 9.7 0.00 0.00 0.00 84 1019.9
20260508072511 8 284 0.0 9.7 0.00 0.00 0.00 84 1020.0
20260508072001 8 204 1.6 9.7 0.00 0.00 0.00 84 1020.0
20260508071526 8 283 0.0 6.4 0.00 0.00 0.00 84 1020.3
20260508071017 8 238 0.0 8.0 0.00 0.00 0.00 84 1020.4
20260508070501 8 238 0.0 8.0 0.00 0.00 0.00 84 1020.4
20260508070018 8 297 0.0 3.2 0.00 0.00 0.00 84 1020.4
20260508065502 8 257 1.6 6.4 0.00 0.00 0.00 84 1020.5
20260508065003 8 297 0.0 11.3 0.00 0.00 0.00 84 1020.5
20260508064530 8 297 0.0 11.3 0.00 0.00 0.00 84 1020.6
20260508064002 8 257 0.0 11.3 0.00 0.00 0.00 84 1020.6
20260508063502 8 270 0.0 9.7 0.00 0.00 0.00 84 1020.6
20260508063030 8 270 0.0 9.7 0.00 0.00 0.00 84 1020.6
20260508062502 8 309 0.0 9.7 0.00 0.00 0.00 84 1020.7
20260508062001 8 288 0.0 11.3 0.00 0.00 0.00 85 1020.7
20260508061530 8 288 0.0 14.5 0.00 0.00 0.00 85 1020.9
20260508061000 8 288 0.0 14.5 0.00 0.00 0.00 85 1021.1
20260508060459 8 271 0.0 14.5 0.00 0.00 0.00 85 1021.1
20260508060030 8 249 0.0 6.4 0.00 0.00 0.00 84 1021.0
20260508055531 8 315 0.0 1.6 0.00 0.00 0.00 84 1021.0
20260508055044 8 316 0.0 0.0 0.00 0.00 0.00 84 1020.9
20260508054528 8 316 0.0 0.0 0.00 0.00 0.00 83 1020.8
20260508054031 8 316 0.0 0.0 0.00 0.00 0.00 82 1020.8
20260508053530 8 316 0.0 0.0 0.00 0.00 0.00 82 1020.8
20260508053028 8 316 0.0 0.0 0.00 0.00 0.00 82 1020.9
20260508052530 8 316 0.0 0.0 0.00 0.00 0.00 82 1020.9
20260508052043 8 316 0.0 0.0 0.00 0.00 0.00 81 1020.9
20260508051528 8 316 0.0 0.0 0.00 0.00 0.00 80 1020.8
20260508051031 8 316 0.0 0.0 0.00 0.00 0.00 79 1020.8
20260508050528 8 316 0.0 0.0 0.00 0.00 0.00 77 1020.7
20260508050043 9 316 0.0 0.0 0.00 0.00 0.00 77 1020.7
20260508045529 9 316 0.0 0.0 0.00 0.00 0.00 77 1020.7
20260508045027 9 316 0.0 0.0 0.00 0.00 0.00 75 1020.7
20260508044533 8 316 0.0 0.0 0.00 0.00 0.00 74 1020.7
20260508044027 9 316 0.0 0.0 0.00 0.00 0.00 73 1020.7
20260508043533 8 316 0.0 0.0 0.00 0.00 0.00 72 1020.6
20260508043026 9 316 0.0 0.0 0.00 0.00 0.00 72 1020.7
20260508042530 9 316 0.0 0.0 0.00 0.00 0.00 73 1020.8
20260508042027 9 316 0.0 0.0 0.00 0.00 0.00 72 1020.8
20260508041526 9 316 0.0 0.0 0.00 0.00 0.00 73 1020.7
20260508041033 9 316 0.0 0.0 0.00 0.00 0.00 71 1020.7
20260508040525 10 316 0.0 0.0 0.00 0.00 0.00 71 1020.8
20260508035525 10 316 0.0 0.0 0.00 0.00 0.00 70 1020.8
20260508035025 10 316 0.0 0.0 0.00 0.00 0.00 69 1020.9
20260508034525 10 316 0.0 0.0 0.00 0.00 0.00 68 1021.0
20260508034026 10 316 0.0 0.0 0.00 0.00 0.00 67 1021.0
20260508033527 10 316 0.0 0.0 0.00 0.00 0.00 67 1021.0
20260508033025 10 316 0.0 0.0 0.00 0.00 0.00 66 1021.0
20260508032525 10 316 0.0 0.0 0.00 0.00 0.00 66 1021.0
20260508032025 10 316 0.0 0.0 0.00 0.00 0.00 66 1020.9
20260508031526 10 316 0.0 0.0 0.00 0.00 0.00 66 1021.0
20260508031025 10 316 0.0 9.7 0.00 0.00 0.00 66 1021.0
20260508030524 10 316 0.0 9.7 0.00 0.00 0.00 65 1020.9
20260508030025 10 316 0.0 9.7 0.00 0.00 0.00 64 1021.2
20260508025526 10 302 0.0 0.0 0.00 0.00 0.00 64 1021.2
20260508025024 10 302 0.0 0.0 0.00 0.00 0.00 64 1021.2
20260508024523 10 302 0.0 0.0 0.00 0.00 0.00 63 1021.2
20260508024024 10 302 0.0 0.0 0.00 0.00 0.00 64 1021.2
20260508023525 10 302 0.0 0.0 0.00 0.00 0.00 63 1021.2
20260508023024 10 302 0.0 3.2 0.00 0.00 0.00 62 1021.1
20260508022523 10 302 0.0 11.3 0.00 0.00 0.00 62 1021.1
20260508022022 10 302 0.0 11.3 0.00 0.00 0.00 62 1021.0
20260508021523 10 323 3.2 11.3 0.00 0.00 0.00 62 1021.0
20260508021023 10 336 1.6 6.4 0.00 0.00 0.00 62 1020.9
20260508020524 10 328 1.6 3.2 0.00 0.00 0.00 63 1021.0
20260508020024 10 308 0.0 4.8 0.00 0.00 0.00 63 1021.0
20260508015523 10 315 0.0 4.8 0.00 0.00 0.00 63 1020.9
20260508015022 10 319 1.6 4.8 0.00 0.00 0.00 64 1020.9
20260508014521 10 322 1.6 1.6 0.00 0.00 0.00 66 1020.8
20260508014022 10 290 0.0 1.6 0.00 0.00 0.00 66 1020.7
20260508013524 10 290 0.0 1.6 0.00 0.00 0.00 67 1020.6
20260508013022 10 316 0.0 0.0 0.00 0.00 0.00 69 1020.5
20260508012521 10 316 0.0 0.0 0.00 0.00 0.00 71 1020.6
20260508012021 10 316 0.0 0.0 0.00 0.00 0.00 70 1020.5
20260508011521 10 316 0.0 0.0 0.00 0.00 0.00 67 1020.5
20260508011021 10 316 0.0 0.0 0.00 0.00 0.00 67 1020.4
20260508010522 10 316 0.0 0.0 0.00 0.00 0.00 66 1020.4
20260508010022 10 316 0.0 0.0 0.00 0.00 0.00 65 1020.4
20260508005521 10 316 0.0 0.0 0.00 0.00 0.00 65 1020.3
20260508005020 10 316 0.0 0.0 0.00 0.00 0.00 64 1020.3
20260508004520 10 316 0.0 0.0 0.00 0.00 0.00 63 1020.0
20260508004019 11 316 0.0 0.0 0.00 0.00 0.00 62 1020.3
20260508003519 11 316 0.0 0.0 0.00 0.00 0.00 61 1020.0
20260508003020 11 316 0.0 0.0 0.00 0.00 0.00 60 1020.0
20260508002520 11 316 0.0 0.0 0.00 0.00 0.00 58 1019.9
20260508002022 11 316 0.0 6.4 0.00 0.00 0.00 56 1019.9
20260508001520 11 316 0.0 6.4 0.00 0.00 0.00 55 1019.9
20260508001019 11 316 0.0 6.4 0.00 0.00 0.00 55 1019.8
20260508000519 11 316 0.0 4.8 0.00 0.00 0.00 54 1019.8
20260508000021 11 316 0.0 6.4 0.00 0.00 0.00 53 1019.7
20260507235520 12 316 0.0 8.0 0.00 0.00 0.00 52 1019.7
20260507235021 12 318 0.0 8.0 0.00 0.00 0.00 53 1019.7
20260507234519 12 308 0.0 8.0 0.00 0.00 0.00 52 1019.7
20260507234018 12 302 0.0 16.1 0.00 0.00 0.00 52 1019.6
20260507233518 12 301 1.6 16.1 0.00 0.00 0.00 52 1019.6
20260507233018 12 328 0.0 16.1 0.00 0.00 0.00 51 1019.7
20260507232518 12 308 6.4 11.3 0.00 0.00 0.00 53 1019.7
20260507232019 12 316 0.0 11.3 0.00 0.00 0.00 52 1019.7
20260507231520 12 321 1.6 14.5 0.00 0.00 0.00 52 1019.6
20260507231019 12 333 9.7 14.5 0.00 0.00 0.00 53 1019.7
20260507230518 12 302 0.0 14.5 0.00 0.00 0.00 51 1019.7
20260507230017 12 314 11.3 16.1 0.00 0.00 0.00 51 1019.7
20260507225516 12 329 0.0 16.1 0.00 0.00 0.00 52 1019.8
20260507225017 12 49 0.0 16.1 0.00 0.00 0.00 51 1019.8
20260507224520 12 301 8.0 14.5 0.00 0.00 0.00 49 1019.8
20260507224018 12 319 8.0 17.7 0.00 0.00 0.00 49 1019.8
20260507223517 12 335 0.0 19.3 0.00 0.00 0.00 51 1019.9
20260507223016 12 340 4.8 19.3 0.00 0.00 0.00 49 1019.9
20260507222516 12 316 9.7 20.9 0.00 0.00 0.00 49 1019.8
20260507222016 12 336 9.7 22.5 0.00 0.00 0.00 50 1019.9
20260507221515 12 328 1.6 22.5 0.00 0.00 0.00 48 1019.8
20260507221016 12 330 3.2 20.9 0.00 0.00 0.00 49 1019.8
20260507220516 12 288 11.3 20.9 0.00 0.00 0.00 50 1019.8
20260507220017 12 302 1.6 20.9 0.00 0.00 0.00 51 1019.8
20260507215516 12 326 9.7 20.9 0.00 0.00 0.00 51 1019.8
20260507215015 12 325 8.0 20.9 0.00 0.00 0.00 51 1019.7
20260507214515 12 325 8.0 20.9 0.00 0.00 0.00 51 1019.7
20260507214014 12 326 17.7 16.1 0.00 0.00 0.00 51 1019.6
20260507213514 12 346 0.0 17.7 0.00 0.00 0.00 51 1019.6
20260507213015 12 335 11.3 17.7 0.00 0.00 0.00 53 1019.6
20260507212517 12 304 1.6 17.7 0.00 0.00 0.00 51 1019.6
20260507212019 12 343 3.2 17.7 0.00 0.00 0.00 54 1019.7
20260507211516 12 339 9.7 17.7 0.00 0.00 0.00 52 1019.6
20260507211013 12 329 3.2 17.7 0.00 0.00 0.00 52 1019.6
20260507210513 12 315 3.2 27.4 0.00 0.00 0.00 51 1019.6
20260507210013 13 305 4.8 27.4 0.00 0.00 0.00 51 1019.6
20260507205513 13 322 11.3 27.4 0.00 0.00 0.00 50 1019.4
20260507205013 12 314 17.7 25.7 0.00 0.00 0.00 53 1019.5
20260507204014 12 321 8.0 20.9 0.00 0.00 0.00 51 1019.6
20260507203513 12 304 0.0 20.9 0.00 0.00 0.00 54 1019.5
20260507203013 12 336 16.1 20.9 0.00 0.00 0.00 54 1019.6
20260507202512 12 315 12.9 27.4 0.00 0.00 0.00 54 1019.6
20260507202012 12 323 14.5 27.4 0.00 0.00 0.00 53 1019.6
20260507201512 12 305 1.6 27.4 0.00 0.00 0.00 55 1019.4
20260507201014 12 326 25.7 25.7 0.00 0.00 0.00 54 1019.5
20260507200512 12 319 6.4 20.9 0.00 0.00 0.00 54 1019.6
20260507200011 12 325 12.9 20.9 0.00 0.00 0.00 56 1019.6
20260507195511 12 312 14.5 20.9 0.00 0.00 0.00 55 1019.7
20260507195011 12 301 8.0 27.4 0.00 0.00 0.00 57 1019.6
20260507194511 12 325 0.0 27.4 0.00 0.00 0.00 60 1019.6
20260507194013 12 308 6.4 27.4 0.00 0.00 0.00 57 1019.6
20260507193512 12 316 1.6 19.3 0.00 0.00 0.00 60 1019.6
20260507193012 12 328 9.7 20.9 0.00 0.00 0.00 56 1019.7
20260507192511 12 359 6.4 20.9 0.00 0.00 0.00 57 1019.8
20260507192010 12 325 9.7 22.5 0.00 0.00 0.00 59 1019.8
20260507191510 12 319 8.0 22.5 0.00 0.00 0.00 61 1019.9
20260507191010 12 316 6.4 22.5 0.00 0.00 0.00 60 1019.8
20260507190511 12 311 11.3 19.3 0.00 0.00 0.00 62 1019.8
20260507190012 12 328 4.8 25.7 0.00 0.00 0.00 59 1019.8
20260507185512 11 346 4.8 25.7 0.00 0.00 0.00 59 1019.9
20260507185011 12 311 6.4 27.4 0.00 0.00 0.00 58 1020.0
20260507184510 12 280 3.2 27.4 0.00 0.00 0.00 59 1020.0
20260507184009 12 322 19.3 27.4 0.00 0.00 0.00 59 1020.0
20260507183509 12 322 4.8 22.5 0.00 0.00 0.00 56 1019.9
20260507183009 12 311 4.8 22.5 0.00 0.00 0.00 58 1020.0
20260507182508 12 326 1.6 22.5 0.00 0.00 0.00 60 1019.9
20260507182008 12 322 14.5 16.1 0.00 0.00 0.00 59 1019.8
20260507181508 12 323 9.7 17.7 0.00 0.00 0.00 56 1019.9
20260507181008 12 315 0.0 20.9 0.00 0.00 0.00 56 1019.9
20260507180508 12 340 8.0 20.9 0.00 0.00 0.00 59 1020.0
20260507180008 12 340 4.8 20.9 0.00 0.00 0.00 58 1020.0
20260507175507 12 305 4.8 22.5 0.00 0.00 0.00 59 1020.3
20260507175008 12 302 1.6 22.5 0.00 0.00 0.00 59 1020.3
20260507174507 12 322 3.2 22.5 0.00 0.00 0.00 55 1020.3
20260507174007 13 314 14.5 22.5 0.00 0.00 0.00 54 1020.0
20260507173507 12 325 4.8 24.1 0.00 0.00 0.00 56 1020.3
20260507173007 12 309 0.0 24.1 0.00 0.00 0.00 59 1020.3
20260507172507 12 294 22.5 24.1 0.00 0.00 0.00 60 1020.3
20260507172006 12 316 11.3 22.5 0.00 0.00 0.00 56 1020.4
20260507171506 12 283 3.2 22.5 0.00 0.00 0.00 56 1020.4
20260507171006 12 291 3.2 17.7 0.00 0.00 0.00 54 1020.4
20260507170506 12 304 12.9 20.9 0.00 0.00 0.00 54 1020.5
20260507170006 12 318 6.4 20.9 0.00 0.00 0.00 59 1020.4
20260507165506 12 311 11.3 20.9 0.00 0.00 0.00 59 1020.5
20260507165006 12 274 0.0 12.9 0.00 0.00 0.00 58 1020.6
20260507164506 12 270 0.0 12.9 0.00 0.00 0.00 56 1020.5
20260507164006 12 304 0.0 12.9 0.00 0.00 0.00 58 1020.5
20260507163505 12 318 0.0 12.9 0.00 0.00 0.00 60 1020.4
20260507163005 11 307 1.6 12.9 0.00 0.00 0.00 62 1020.5
20260507162506 11 308 1.6 17.7 0.00 0.00 0.00 60 1020.4
20260507162006 11 271 0.0 24.1 0.00 0.00 0.00 60 1020.4
20260507161506 11 314 6.4 24.1 0.00 0.00 0.00 57 1020.5
20260507161005 11 277 6.4 24.1 0.00 0.00 0.00 58 1020.5
20260507160505 11 293 3.2 19.3 0.00 0.00 0.00 64 1020.5
20260507160005 11 316 11.3 19.3 0.00 0.00 0.00 58 1020.6
20260507155505 11 284 4.8 19.3 0.00 0.00 0.00 61 1020.6
20260507155004 11 328 0.0 19.3 0.00 0.00 0.00 61 1020.6
20260507154504 11 330 9.7 22.5 0.00 0.00 0.00 58 1020.5
20260507154004 11 332 9.7 22.5 0.00 0.00 0.00 58 1020.6
20260507153505 11 323 14.5 22.5 0.00 0.00 0.00 55 1020.5
20260507153006 11 315 14.5 19.3 0.00 0.00 0.00 60 1020.4
20260507152503 11 312 0.0 19.3 0.00 0.00 0.00 60 1020.5
20260507152003 11 308 8.0 14.5 0.00 0.00 0.00 60 1020.4
20260507151504 11 316 3.2 17.7 0.00 0.00 0.00 62 1020.5
20260507151003 11 290 0.0 17.7 0.00 0.00 0.00 61 1020.4
20260507150502 11 293 3.2 17.7 0.00 0.00 0.00 61 1020.5
20260507150002 10 325 11.3 17.7 0.00 0.00 0.00 60 1020.5
20260507145503 10 332 6.4 16.1 0.00 0.00 0.00 66 1020.5
20260507145003 10 298 3.2 16.1 0.00 0.00 0.00 64 1020.6
20260507144503 10 309 14.5 16.1 0.00 0.00 0.00 68 1020.6
20260507144003 10 312 8.0 8.0 0.00 0.00 0.00 68 1020.7
20260507143502 10 322 4.8 8.0 0.00 0.00 0.00 71 1020.6
20260507143032 10 302 3.2 8.0 0.00 0.00 0.00 72 1020.6
20260507142532 10 321 0.0 8.0 0.00 0.00 0.00 74 1020.6
20260507142031 10 276 0.0 12.9 0.00 0.08 0.00 74 1020.6
20260507141531 10 318 1.6 12.9 0.00 0.08 0.00 75 1020.6
20260507141031 9 311 0.0 12.9 0.00 0.08 0.00 74 1020.7
20260507140530 9 330 4.8 11.3 0.00 0.08 0.00 76 1020.7
20260507140031 9 312 0.0 11.3 0.00 0.08 0.00 77 1020.8